Fort Lewis, WA

11:13 PM PDT on March 25, 2017 (GMT -0700)
Gray Army Air Field

Weather History for KGRF - January, 2014

Change the Weather History Date:

Saturday, January 25, 2014

  Actual Average Record
Temperature  
Mean Temperature 38 °F -  
Max Temperature 52 °F 46 °F 60 °F (2003)
Min Temperature 24 °F 34 °F 17 °F (2008)
Degree Days  
Heating Degree Days 27    
Moisture  
Dew Point 31 °F    
Average Humidity 91    
Maximum Humidity 100    
Minimum Humidity 53    
Precipitation  
Precipitation 0.00 in - - ()
Sea Level Pressure  
Sea Level Pressure 30.34 in    
Wind  
Wind Speed 3 mph (ESE)    
Max Wind Speed 8 mph    
Max Gust Speed -    
Visibility 9 miles    
Events      
Averages and records for this station are not official NWS values.
T = Trace of Precipitation, MM = Missing Value Source: NWS Daily Summary

Daily Weather History Graph

Daily Weather History Graph

Search for Another Location

Airport or City:

Trip Planner

Search our weather history database for the weather conditions in past years. The results will help you decide how hot, cold, wet, or windy it might be!

Date:

Astronomy

Jan. 25, 2014 Rise Set
Actual Time 7:43 AM PST 5:02 PM PST
Civil Twilight 7:10 AM PST 5:35 PM PST
Nautical Twilight 6:33 AM PST 6:12 PM PST
Astronomical Twilight 5:57 AM PST 6:48 PM PST
Moon 2:20 AM PST (1/25) 12:07 PM PST (1/25)
Length of Visible Light 10h 25m
Length of Day
9h 19m
Waning Crescent, 33% of the Moon is Illuminated
Jan 25
Waning Crescent
Jan 30
New
Feb 6
First Quarter
Feb 14
Full
Feb 22
Last Quarter

Hourly Weather History & Observations

Time (PST) Temp. Windchill Dew Point Humidity Pressure Visibility Wind Dir Wind Speed Gust Speed Precip Events Conditions
12:58 AM 27.3 °F 23.4 °F 27.1 °F 99% 30.34 in 10.0 mi SE 3.5 mph - N/A   Clear
1:43 AM 26.6 °F 20.0 °F 26.6 °F 100% 30.33 in 2.0 mi SE 5.8 mph - N/A   Clear
1:48 AM 26.6 °F 20.0 °F 26.6 °F 100% 30.33 in 1.5 mi SE 5.8 mph - N/A   Clear
1:53 AM 26.6 °F 20.0 °F 26.6 °F 100% 30.33 in 2.0 mi SSE 5.8 mph - N/A   Clear
1:58 AM 26.2 °F 20.7 °F 26.1 °F 99% 30.35 in 4.0 mi SE 4.6 mph - N/A   Clear
2:03 AM 26.6 °F 21.2 °F 26.6 °F 100% 30.33 in 8.0 mi SE 4.6 mph - N/A   Clear
2:13 AM 26.6 °F 18.2 °F 26.6 °F 100% 30.34 in 10.0 mi SE 8.1 mph - N/A   Clear
2:58 AM 27.0 °F - 26.8 °F 99% 30.35 in 10.0 mi ENE 2.3 mph - N/A   Clear
3:58 AM 26.2 °F 22.1 °F 26.1 °F 99% 30.36 in 10.0 mi SE 3.5 mph - N/A   Clear
4:58 AM 26.1 °F 20.5 °F 25.7 °F 99% 30.36 in 10.0 mi SE 4.6 mph - N/A   Clear
5:58 AM 25.5 °F 19.9 °F 25.3 °F 99% 30.36 in 10.0 mi SE 4.6 mph - N/A   Clear
6:58 AM 24.8 °F - 24.6 °F 99% 30.37 in 10.0 mi Calm Calm - N/A   Clear
7:58 AM 25.9 °F - 25.7 °F 99% 30.38 in 10.0 mi Calm Calm - N/A   Clear
8:58 AM 28.8 °F - 28.6 °F 99% 30.40 in 10.0 mi SE 2.3 mph - N/A   Clear
9:58 AM 34.5 °F - 34.3 °F 99% 30.40 in 10.0 mi ENE 1.2 mph - N/A   Clear
10:58 AM 39.6 °F - 36.5 °F 89% 30.40 in 10.0 mi Calm Calm - N/A   Clear
11:58 AM 45.1 °F - 37.0 °F 73% 30.38 in 10.0 mi NE 2.3 mph - N/A   Clear
12:58 PM 49.6 °F - 36.1 °F 60% 30.37 in 10.0 mi Calm Calm - N/A   Clear
1:58 PM 52.3 °F - 35.4 °F 53% 30.35 in 10.0 mi NE 1.2 mph - N/A   Clear
2:58 PM 52.5 °F - 36.0 °F 53% 30.34 in 10.0 mi Variable 1.2 mph - N/A   Clear
3:58 PM 52.9 °F - 36.7 °F 54% 30.33 in 10.0 mi WNW 3.5 mph - N/A   Clear
4:58 PM 47.8 °F - 37.2 °F 67% 30.32 in 10.0 mi SE 2.3 mph - N/A   Clear
5:58 PM 41.4 °F - 39.2 °F 92% 30.30 in 10.0 mi East 1.2 mph - N/A   Clear
6:58 PM 37.4 °F 34.9 °F 37.0 °F 99% 30.30 in 10.0 mi SE 3.5 mph - N/A   Clear
7:58 PM 35.1 °F - 34.9 °F 99% 30.30 in 10.0 mi East 1.2 mph - N/A   Clear
8:58 PM 32.7 °F - 32.5 °F 99% 30.30 in 10.0 mi ESE 2.3 mph - N/A   Clear
9:58 PM 31.6 °F 27.0 °F 31.5 °F 99% 30.29 in 10.0 mi SE 4.6 mph - N/A   Clear
10:58 PM 30.7 °F - 30.6 °F 99% 30.29 in 10.0 mi ESE 2.3 mph - N/A   Clear
11:58 PM 30.6 °F - 30.2 °F 99% 30.29 in 10.0 mi Calm Calm - N/A   Clear